No particular awareness of the weather is required.    There are no Weather-warnings


Meteo18 Weather Cam more information Meteo18 Weather Cam


Thunder radar more information blitzortung!


Rain radar more information rain snow radar


Visit our other weather sites:

Template documentation
and downloads

And another site



Weather Underground History page Text

Daily Summary for June 18, 2017 Units:  English    Metric   Both
« Previous Day
Next Day »
Daily Weekly Monthly Yearly Custom
  High: Low: Average:
Temperature: TemperatureC °F 16.1 °F 23.1 °F
Dew Point: DewpointC °F 13.3 °F 14.7 °F
Humidity: Humidity % 42 % 61 %
Wind Speed: WindSpeedKMH mph 0.0 mph 10 mph
Wind Gust: WindSpeedGustKMH mph - -
Wind:- - ENE
Pressure: PressurehPa in 1018.8 in -
Precipitation: 0.0 in    
Historical Graphs
 
 
Tabular Data for June 18, 2017
Time Temperature Dew Point Pressure Wind Wind Speed Wind Gust Humidity Rainfall Rate (Hourly)
TemperatureC °F DewpointC °F PressurehPa in Calm     Humidity % HourlyPrecipMM in
00:02 19.4 °F 14.2 °F 1024.6 in NNE 11.3 mph 19.3 mph 72 % 0.0 in
00:07 19.4 °F 14.2 °F 1024.6 in NW 6.4 mph 19.3 mph 72 % 0.0 in
00:12 19.3 °F 14.3 °F 1024.6 in NNE 4.8 mph 19.3 mph 73 % 0.0 in
00:17 19.3 °F 14.3 °F 1024.6 in NE 11.3 mph 19.3 mph 73 % 0.0 in
00:22 19.3 °F 14.3 °F 1024.6 in North 6.4 mph 17.7 mph 73 % 0.0 in
00:32 19.1 °F 14.1 °F 1024.6 in NE 4.8 mph 17.7 mph 73 % 0.0 in
00:42 18.9 °F 14.2 °F 1024.6 in NE 3.2 mph 12.9 mph 74 % 0.0 in
00:47 18.9 °F 14.2 °F 1024.6 in NNW 4.8 mph 12.9 mph 74 % 0.0 in
00:52 18.8 °F 14.3 °F 1024.6 in NNE 3.2 mph 12.9 mph 75 % 0.0 in
00:57 18.8 °F 14.3 °F 1024.3 in NNW 4.8 mph 14.5 mph 75 % 0.0 in
01:02 18.7 °F 14.2 °F 1024.3 in ENE 4.8 mph 14.5 mph 75 % 0.0 in
01:07 18.6 °F 14.1 °F 1024.3 in NW 6.4 mph 14.5 mph 75 % 0.0 in
01:12 18.6 °F 14.3 °F 1024.3 in ENE 6.4 mph 16.1 mph 76 % 0.0 in
01:17 18.7 °F 14.2 °F 1024.3 in North 4.8 mph 17.7 mph 75 % 0.0 in
01:22 18.5 °F 14.2 °F 1024.3 in NE 8.0 mph 20.9 mph 76 % 0.0 in
01:27 18.4 °F 14.1 °F 1024.3 in North 8.0 mph 20.9 mph 76 % 0.0 in
01:37 18.5 °F 14.2 °F 1024.3 in NE 12.9 mph 17.7 mph 76 % 0.0 in
01:42 18.6 °F 14.3 °F 1024.3 in NNE 12.9 mph 19.3 mph 76 % 0.0 in
01:47 18.5 °F 14.2 °F 1024.3 in NNE 9.7 mph 19.3 mph 76 % 0.0 in
01:52 18.4 °F 14.3 °F 1024.3 in NNE 9.7 mph 19.3 mph 77 % 0.0 in
01:57 18.4 °F 14.3 °F 1024.3 in NE 8.0 mph 20.9 mph 77 % 0.0 in
02:02 18.3 °F 14.2 °F 1024.3 in NE 12.9 mph 20.9 mph 77 % 0.0 in
02:07 18.2 °F 14.1 °F 1024.3 in NE 8.0 mph 20.9 mph 77 % 0.0 in
02:12 18.1 °F 14.2 °F 1023.9 in NE 6.4 mph 17.7 mph 78 % 0.0 in
02:17 17.9 °F 14.2 °F 1023.9 in NNE 9.7 mph 12.9 mph 79 % 0.0 in
02:22 17.8 °F 14.1 °F 1023.9 in NE 4.8 mph 12.9 mph 79 % 0.0 in
02:32 17.6 °F 14.1 °F 1023.9 in NNE 3.2 mph 12.9 mph 80 % 0.0 in
02:37 17.4 °F 13.9 °F 1023.9 in NNE 3.2 mph 8.0 mph 80 % 0.0 in
02:42 17.4 °F 13.9 °F 1023.9 in NE 4.8 mph 11.3 mph 80 % 0.0 in
02:47 17.4 °F 13.9 °F 1023.9 in NNE 3.2 mph 11.3 mph 80 % 0.0 in
02:52 17.3 °F 14.0 °F 1023.9 in NNE 3.2 mph 11.3 mph 81 % 0.0 in
02:57 17.4 °F 14.1 °F 1023.9 in NE 11.3 mph 11.3 mph 81 % 0.0 in
03:02 17.5 °F 14.2 °F 1023.6 in North 6.4 mph 11.3 mph 81 % 0.0 in
03:07 17.5 °F 14.2 °F 1023.6 in NE 8.0 mph 16.1 mph 81 % 0.0 in
03:12 17.6 °F 14.1 °F 1023.6 in NE 9.7 mph 16.1 mph 80 % 0.0 in
03:17 17.6 °F 14.1 °F 1023.6 in NE 8.0 mph 16.1 mph 80 % 0.0 in
03:22 17.6 °F 14.1 °F 1023.6 in NNW 8.0 mph 14.5 mph 80 % 0.0 in
03:32 17.5 °F 14.2 °F 1023.6 in NNE 8.0 mph 12.9 mph 81 % 0.0 in
03:37 17.4 °F 14.1 °F 1023.6 in ENE 6.4 mph 12.9 mph 81 % 0.0 in
03:42 17.4 °F 14.1 °F 1023.6 in NNE 3.2 mph 12.9 mph 81 % 0.0 in
03:47 17.3 °F 14.0 °F 1023.6 in NE 6.4 mph 11.3 mph 81 % 0.0 in
03:52 17.3 °F 14.0 °F 1023.6 in NE 8.0 mph 16.1 mph 81 % 0.0 in
03:57 17.2 °F 13.9 °F 1023.2 in NE 11.3 mph 16.1 mph 81 % 0.0 in
04:02 17.2 °F 14.1 °F 1023.2 in NE 8.0 mph 16.1 mph 82 % 0.0 in
04:07 17.2 °F 14.1 °F 1023.2 in NE 6.4 mph 16.1 mph 82 % 0.0 in
04:12 17.2 °F 14.1 °F 1023.2 in NNW 3.2 mph 16.1 mph 82 % 0.0 in
04:17 17.2 °F 14.1 °F 1023.2 in NE 3.2 mph 12.9 mph 82 % 0.0 in
04:22 17.1 °F 14.0 °F 1023.2 in NE 4.8 mph 16.1 mph 82 % 0.0 in
04:27 17.0 °F 13.9 °F 1023.2 in North 8.0 mph 16.1 mph 82 % 0.0 in
04:32 16.9 °F 13.8 °F 1023.2 in ENE 3.2 mph 16.1 mph 82 % 0.0 in
04:37 16.8 °F 13.9 °F 1023.2 in WNW 1.6 mph 11.3 mph 83 % 0.0 in
04:42 16.7 °F 13.8 °F 1023.2 in NE 3.2 mph 9.7 mph 83 % 0.0 in
04:47 16.7 °F 13.8 °F 1022.9 in NNW 1.6 mph 9.7 mph 83 % 0.0 in
04:52 16.7 °F 13.8 °F 1022.9 in ENE 3.2 mph 9.7 mph 83 % 0.0 in
05:02 16.5 °F 13.6 °F 1022.9 in NE 3.2 mph 12.9 mph 83 % 0.0 in
05:07 16.4 °F 13.5 °F 1022.9 in NE 4.8 mph 12.9 mph 83 % 0.0 in
05:12 16.3 °F 13.6 °F 1022.6 in NNE 6.4 mph 12.9 mph 84 % 0.0 in
05:17 16.4 °F 13.7 °F 1022.6 in NNW 8.0 mph 12.9 mph 84 % 0.0 in
05:22 16.4 °F 13.5 °F 1022.6 in North 3.2 mph 12.9 mph 83 % 0.0 in
05:32 16.3 °F 13.4 °F 1022.6 in NE 4.8 mph 16.1 mph 83 % 0.0 in
05:42 16.4 °F 13.5 °F 1022.6 in NE 6.4 mph 11.3 mph 83 % 0.0 in
05:52 16.2 °F 13.3 °F 1022.6 in Calm   14.5 mph 83 % 0.0 in
05:57 16.2 °F 13.5 °F 1022.6 in NNW 1.6 mph 14.5 mph 84 % 0.0 in
06:02 16.2 °F 13.3 °F 1022.6 in North 4.8 mph 14.5 mph 83 % 0.0 in
06:12 16.2 °F 13.3 °F 1022.6 in North 1.6 mph 9.7 mph 83 % 0.0 in
06:17 16.1 °F 13.4 °F 1022.6 in Calm   11.3 mph 84 % 0.0 in
06:27 16.2 °F 13.5 °F 1022.6 in NNE 3.2 mph 11.3 mph 84 % 0.0 in
06:32 16.2 °F 13.5 °F 1022.6 in NE 3.2 mph 11.3 mph 84 % 0.0 in
06:42 16.6 °F 13.7 °F 1022.2 in NNE 6.4 mph 11.3 mph 83 % 0.0 in
06:47 16.7 °F 13.6 °F 1022.2 in Calm   9.7 mph 82 % 0.0 in
06:52 16.9 °F 13.8 °F 1022.2 in NNE 4.8 mph 9.7 mph 82 % 0.0 in
07:02 17.2 °F 13.7 °F 1022.2 in NNE 4.8 mph 8.0 mph 80 % 0.0 in
07:12 17.4 °F 13.9 °F 1022.2 in NNE 8.0 mph 12.9 mph 80 % 0.0 in
07:22 17.7 °F 14.0 °F 1022.2 in NE 14.5 mph 14.5 mph 79 % 0.0 in
07:32 17.9 °F 13.8 °F 1022.2 in NE 12.9 mph 17.7 mph 77 % 0.0 in
07:42 18.1 °F 14.0 °F 1022.2 in ENE 11.3 mph 22.5 mph 77 % 0.0 in
07:47 18.1 °F 14.0 °F 1022.2 in NE 6.4 mph 24.1 mph 77 % 0.0 in
07:52 18.2 °F 14.1 °F 1022.2 in NE 9.7 mph 24.1 mph 77 % 0.0 in
08:02 18.3 °F 14.2 °F 1022.2 in ENE 14.5 mph 22.5 mph 77 % 0.0 in
08:12 18.6 °F 14.3 °F 1022.2 in ENE 3.2 mph 20.9 mph 76 % 0.0 in
08:17 18.6 °F 14.3 °F 1022.2 in ENE 4.8 mph 19.3 mph 76 % 0.0 in
08:22 18.7 °F 14.2 °F 1022.2 in NNE 6.4 mph 19.3 mph 75 % 0.0 in
08:27 18.8 °F 14.3 °F 1022.2 in NE 14.5 mph 19.3 mph 75 % 0.0 in
08:32 18.9 °F 14.4 °F 1022.2 in NNE 8.0 mph 19.3 mph 75 % 0.0 in
08:42 19.3 °F 14.5 °F 1022.2 in NE 9.7 mph 16.1 mph 74 % 0.0 in
08:47 19.6 °F 14.8 °F 1022.2 in NE 8.0 mph 16.1 mph 74 % 0.0 in
08:52 19.7 °F 14.5 °F 1022.2 in NE 8.0 mph 16.1 mph 72 % 0.0 in
09:02 20.0 °F 14.4 °F 1022.2 in ENE 8.0 mph 17.7 mph 70 % 0.0 in
09:12 20.4 °F 14.3 °F 1022.2 in ENE 8.0 mph 22.5 mph 68 % 0.0 in
09:17 20.7 °F 14.6 °F 1022.2 in NE 19.3 mph 20.9 mph 68 % 0.0 in
09:22 20.8 °F 14.2 °F 1022.2 in North 19.3 mph 20.9 mph 66 % 0.0 in
09:32 21.1 °F 14.5 °F 1022.2 in ENE 8.0 mph 22.5 mph 66 % 0.0 in
09:42 21.3 °F 14.2 °F 1022.2 in NE 8.0 mph 27.4 mph 64 % 0.0 in
09:52 21.7 °F 14.1 °F 1022.2 in NNE 9.7 mph 25.7 mph 62 % 0.0 in
10:02 22.1 °F 14.0 °F 1022.2 in NNE 8.0 mph 25.7 mph 60 % 0.0 in
10:07 22.1 °F 14.0 °F 1022.2 in NE 16.1 mph 27.4 mph 60 % 0.0 in
10:12 22.2 °F 13.8 °F 1022.2 in NE 14.5 mph 27.4 mph 59 % 0.0 in
10:17 22.3 °F 13.6 °F 1022.2 in NE 17.7 mph 30.6 mph 58 % 0.0 in
10:22 22.4 °F 13.7 °F 1022.2 in ENE 11.3 mph 30.6 mph 58 % 0.0 in
10:32 22.9 °F 13.7 °F 1022.2 in ENE 17.7 mph 30.6 mph 56 % 0.0 in
10:42 22.6 °F 13.9 °F 1022.2 in ENE 25.7 mph 29.0 mph 58 % 0.0 in
10:52 23.0 °F 14.0 °F 1021.9 in North 22.5 mph 32.2 mph 57 % 0.0 in
11:02 22.9 °F 13.9 °F 1021.9 in NNE 12.9 mph 30.6 mph 57 % 0.0 in
11:12 23.2 °F 13.9 °F 1021.9 in NE 17.7 mph 30.6 mph 56 % 0.0 in
11:17 23.3 °F 14.3 °F 1021.6 in NE 17.7 mph 30.6 mph 57 % 0.0 in
11:22 23.7 °F 14.1 °F 1021.6 in NNE 19.3 mph 30.6 mph 55 % 0.0 in
11:32 23.7 °F 14.4 °F 1021.6 in East 9.7 mph 27.4 mph 56 % 0.0 in
11:42 23.9 °F 14.0 °F 1021.6 in NE 8.0 mph 27.4 mph 54 % 0.0 in
11:47 24.1 °F 14.2 °F 1021.6 in NE 11.3 mph 29.0 mph 54 % 0.0 in
11:52 24.2 °F 14.0 °F 1021.6 in NNE 8.0 mph 29.0 mph 53 % 0.0 in
12:02 24.6 °F 14.4 °F 1021.6 in ENE 16.1 mph 29.0 mph 53 % 0.0 in
12:07 24.7 °F 14.2 °F 1021.6 in NE 9.7 mph 29.0 mph 52 % 0.0 in
12:12 25.0 °F 14.8 °F 1021.6 in NE 16.1 mph 27.4 mph 53 % 0.0 in
12:17 25.3 °F 14.7 °F 1021.6 in NE 12.9 mph 27.4 mph 52 % 0.0 in
12:22 25.3 °F 14.7 °F 1021.6 in NE 12.9 mph 25.7 mph 52 % 0.0 in
12:27 25.4 °F 14.2 °F 1021.6 in NE 11.3 mph 25.7 mph 50 % 0.0 in
12:32 25.4 °F 13.9 °F 1021.6 in East 11.3 mph 25.7 mph 49 % 0.0 in
12:42 25.6 °F 14.4 °F 1021.6 in East 22.5 mph 30.6 mph 50 % 0.0 in
12:47 25.8 °F 14.3 °F 1021.2 in NE 14.5 mph 27.4 mph 49 % 0.0 in
12:52 25.7 °F 14.2 °F 1021.2 in ENE 9.7 mph 27.4 mph 49 % 0.0 in
12:57 26.1 °F 14.2 °F 1021.2 in NE 22.5 mph 27.4 mph 48 % 0.0 in
13:02 26.0 °F 14.1 °F 1021.2 in East 9.7 mph 27.4 mph 48 % 0.0 in
13:07 26.2 °F 14.6 °F 1020.9 in North 8.0 mph 25.7 mph 49 % 0.0 in
13:12 26.4 °F 14.2 °F 1020.9 in ENE 16.1 mph 32.2 mph 47 % 0.0 in
13:17 26.4 °F 14.2 °F 1020.9 in East 16.1 mph 32.2 mph 47 % 0.0 in
13:22 26.6 °F 14.0 °F 1020.9 in ENE 17.7 mph 32.2 mph 46 % 0.0 in
13:27 26.7 °F 14.1 °F 1020.9 in ENE 25.7 mph 29.0 mph 46 % 0.0 in
13:32 26.8 °F 14.9 °F 1020.9 in ENE 11.3 mph 29.0 mph 48 % 0.0 in
13:37 27.1 °F 14.8 °F 1020.9 in NE 17.7 mph 29.0 mph 47 % 0.0 in
13:42 26.8 °F 14.5 °F 1020.9 in East 11.3 mph 27.4 mph 47 % 0.0 in
13:47 27.1 °F 14.5 °F 1020.9 in ENE 9.7 mph 27.4 mph 46 % 0.0 in
13:52 27.2 °F 14.2 °F 1020.9 in ENE 16.1 mph 27.4 mph 45 % 0.0 in
13:57 27.3 °F 14.7 °F 1020.5 in NE 8.0 mph 25.7 mph 46 % 0.0 in
14:02 27.4 °F 14.8 °F 1020.5 in NE 19.3 mph 25.7 mph 46 % 0.0 in
14:07 27.3 °F 14.7 °F 1020.5 in NE 8.0 mph 29.0 mph 46 % 0.0 in
14:12 27.5 °F 14.8 °F 1020.5 in NNE 19.3 mph 29.0 mph 46 % 0.0 in
14:17 27.5 °F 14.5 °F 1020.5 in NE 19.3 mph 29.0 mph 45 % 0.0 in
14:22 27.6 °F 14.9 °F 1020.5 in NE 19.3 mph 30.6 mph 46 % 0.0 in
14:27 27.7 °F 14.7 °F 1020.5 in NNE 16.1 mph 30.6 mph 45 % 0.0 in
14:32 28.0 °F 15.0 °F 1020.2 in NNE 16.1 mph 30.6 mph 45 % 0.0 in
14:37 28.0 °F 15.0 °F 1020.2 in NE 12.9 mph 30.6 mph 45 % 0.0 in
14:42 28.2 °F 15.1 °F 1020.2 in NE 4.8 mph 30.6 mph 45 % 0.0 in
14:47 28.4 °F 14.6 °F 1020.2 in NE 19.3 mph 30.6 mph 43 % 0.0 in
14:52 28.5 °F 15.1 °F 1020.2 in NE 9.7 mph 29.0 mph 44 % 0.0 in
14:57 28.6 °F 15.2 °F 1020.2 in NNE 30.6 mph 30.6 mph 44 % 0.0 in
15:02 28.2 °F 14.8 °F 1020.2 in NNE 11.3 mph 29.0 mph 44 % 0.0 in
15:07 28.6 °F 15.2 °F 1020.2 in NNE 12.9 mph 33.8 mph 44 % 0.0 in
15:12 28.4 °F 15.0 °F 1020.2 in ENE 14.5 mph 33.8 mph 44 % 0.0 in
15:17 28.7 °F 14.9 °F 1020.2 in ENE 14.5 mph 24.1 mph 43 % 0.0 in
15:22 28.4 °F 15.0 °F 1020.2 in NNE 11.3 mph 27.4 mph 44 % 0.0 in
15:27 28.7 °F 14.9 °F 1019.9 in East 16.1 mph 27.4 mph 43 % 0.0 in
15:32 28.8 °F 15.0 °F 1019.9 in NE 14.5 mph 27.4 mph 43 % 0.0 in
15:37 28.9 °F 14.7 °F 1019.9 in NE 9.7 mph 24.1 mph 42 % 0.0 in
15:42 28.8 °F 15.3 °F 1019.9 in East 24.1 mph 25.7 mph 44 % 0.0 in
15:47 28.9 °F 14.7 °F 1019.9 in ENE 17.7 mph 25.7 mph 42 % 0.0 in
15:52 28.8 °F 15.3 °F 1019.9 in NE 8.0 mph 25.7 mph 44 % 0.0 in
15:57 28.8 °F 14.6 °F 1019.9 in NE 11.3 mph 25.7 mph 42 % 0.0 in
16:02 29.1 °F 15.6 °F 1019.9 in ENE 9.7 mph 25.7 mph 44 % 0.0 in
16:07 29.2 °F 15.0 °F 1019.9 in NE 12.9 mph 25.7 mph 42 % 0.0 in
16:12 29.1 °F 14.9 °F 1019.9 in NE 11.3 mph 30.6 mph 42 % 0.0 in
16:17 29.0 °F 15.2 °F 1019.9 in ENE 11.3 mph 30.6 mph 43 % 0.0 in
16:22 29.3 °F 15.4 °F 1019.9 in NNE 11.3 mph 24.1 mph 43 % 0.0 in
16:27 29.3 °F 15.4 °F 1019.5 in NE 14.5 mph 22.5 mph 43 % 0.0 in
16:32 29.5 °F 16.0 °F 1019.9 in NNE 9.7 mph 22.5 mph 44 % 0.0 in
16:37 29.3 °F 15.1 °F 1019.5 in NE 8.0 mph 29.0 mph 42 % 0.0 in
16:42 29.3 °F 15.4 °F 1019.5 in ENE 19.3 mph 29.0 mph 43 % 0.0 in
16:47 29.2 °F 16.4 °F 1019.5 in North 8.0 mph 25.7 mph 46 % 0.0 in
16:52 29.2 °F 16.4 °F 1019.5 in ENE 16.1 mph 25.7 mph 46 % 0.0 in
16:57 29.2 °F 15.3 °F 1019.5 in NNE 8.0 mph 25.7 mph 43 % 0.0 in
17:02 29.4 °F 16.2 °F 1019.5 in NE 14.5 mph 25.7 mph 45 % 0.0 in
17:12 29.1 °F 15.6 °F 1019.5 in NE 8.0 mph 30.6 mph 44 % 0.0 in
17:17 29.1 °F 16.3 °F 1019.5 in NE 8.0 mph 30.6 mph 46 % 0.0 in
17:22 29.2 °F 16.4 °F 1019.2 in ENE 11.3 mph 22.5 mph 46 % 0.0 in
17:32 29.4 °F 15.9 °F 1019.2 in NE 17.7 mph 24.1 mph 44 % 0.0 in
17:37 29.2 °F 16.0 °F 1019.2 in NNE 9.7 mph 24.1 mph 45 % 0.0 in
17:42 29.1 °F 16.3 °F 1019.2 in NW 6.4 mph 24.1 mph 46 % 0.0 in
17:47 29.2 °F 16.7 °F 1019.2 in NNE 17.7 mph 27.4 mph 47 % 0.0 in
17:52 29.1 °F 16.0 °F 1019.2 in NE 12.9 mph 27.4 mph 45 % 0.0 in
18:02 28.9 °F 16.5 °F 1019.2 in ENE 19.3 mph 27.4 mph 47 % 0.0 in
18:07 29.1 °F 16.3 °F 1019.2 in NE 9.7 mph 27.4 mph 46 % 0.0 in
18:12 29.0 °F 16.5 °F 1019.2 in ESE 6.4 mph 27.4 mph 47 % 0.0 in
18:17 29.1 °F 16.3 °F 1019.2 in NNE 12.9 mph 27.4 mph 46 % 0.0 in
18:22 28.9 °F 16.1 °F 1019.2 in NNE 6.4 mph 27.4 mph 46 % 0.0 in
18:27 28.9 °F 16.1 °F 1019.2 in ENE 12.9 mph 27.4 mph 46 % 0.0 in
18:32 28.7 °F 15.9 °F 1019.2 in North 11.3 mph 29.0 mph 46 % 0.0 in
18:37 28.7 °F 15.9 °F 1019.2 in NE 17.7 mph 29.0 mph 46 % 0.0 in
18:42 28.6 °F 16.5 °F 1019.2 in NNE 16.1 mph 29.0 mph 48 % 0.0 in
18:47 28.6 °F 16.5 °F 1019.2 in NE 14.5 mph 22.5 mph 48 % 0.0 in
18:52 28.6 °F 16.5 °F 1019.2 in NNW 9.7 mph 25.7 mph 48 % 0.0 in
18:57 28.6 °F 16.5 °F 1019.2 in NNW 8.0 mph 27.4 mph 48 % 0.0 in
19:02 28.5 °F 16.4 °F 1019.2 in NNE 14.5 mph 27.4 mph 48 % 0.0 in
19:07 28.4 °F 16.0 °F 1019.2 in NNE 9.7 mph 27.4 mph 47 % 0.0 in
19:12 28.4 °F 16.0 °F 1019.2 in NE 8.0 mph 27.4 mph 47 % 0.0 in
19:17 28.3 °F 16.2 °F 1019.2 in North 6.4 mph 25.7 mph 48 % 0.0 in
19:22 28.4 °F 16.3 °F 1019.2 in NNW 12.9 mph 25.7 mph 48 % 0.0 in
19:32 28.2 °F 16.5 °F 1019.2 in ENE 4.8 mph 20.9 mph 49 % 0.0 in
19:37 28.2 °F 16.5 °F 1019.2 in ENE 11.3 mph 20.9 mph 49 % 0.0 in
19:42 28.0 °F 16.0 °F 1018.8 in NE 9.7 mph 27.4 mph 48 % 0.0 in
19:47 27.8 °F 15.8 °F 1018.8 in NNE 17.7 mph 29.0 mph 48 % 0.0 in
19:52 27.8 °F 15.8 °F 1019.2 in NE 17.7 mph 29.0 mph 48 % 0.0 in
19:57 27.7 °F 16.0 °F 1019.2 in NE 16.1 mph 29.0 mph 49 % 0.0 in
20:02 27.7 °F 15.7 °F 1019.2 in NE 14.5 mph 29.0 mph 48 % 0.0 in
20:07 27.6 °F 15.9 °F 1019.2 in NE 19.3 mph 27.4 mph 49 % 0.0 in
20:12 27.6 °F 15.9 °F 1019.2 in NNE 12.9 mph 27.4 mph 49 % 0.0 in
20:17 27.4 °F 15.7 °F 1019.2 in NNE 16.1 mph 27.4 mph 49 % 0.0 in
20:22 27.4 °F 16.1 °F 1018.8 in NE 12.9 mph 22.5 mph 50 % 0.0 in
20:27 27.3 °F 16.0 °F 1019.2 in NNE 12.9 mph 22.5 mph 50 % 0.0 in
20:32 27.2 °F 15.9 °F 1018.8 in NNE 12.9 mph 22.5 mph 50 % 0.0 in
20:37 27.1 °F 15.8 °F 1018.8 in NNE 14.5 mph 24.1 mph 50 % 0.0 in
20:42 27.0 °F 15.7 °F 1018.8 in NE 9.7 mph 24.1 mph 50 % 0.0 in
20:47 26.9 °F 15.9 °F 1018.8 in NNE 8.0 mph 20.9 mph 51 % 0.0 in
20:52 26.8 °F 16.1 °F 1018.8 in North 11.3 mph 20.9 mph 52 % 0.0 in
20:57 26.6 °F 15.9 °F 1018.8 in North 3.2 mph 16.1 mph 52 % 0.0 in
21:02 26.4 °F 15.8 °F 1018.8 in NE 4.8 mph 16.1 mph 52 % 0.0 in
21:12 26.1 °F 15.8 °F 1019.2 in NNE 9.7 mph 16.1 mph 53 % 0.0 in
21:22 25.9 °F 15.6 °F 1019.2 in North 9.7 mph 20.9 mph 53 % 0.0 in
21:27 25.7 °F 15.7 °F 1019.2 in NNE 16.1 mph 20.9 mph 54 % 0.0 in
21:32 25.5 °F 15.5 °F 1019.2 in NNE 16.1 mph 20.9 mph 54 % 0.0 in
21:37 25.2 °F 15.5 °F 1019.2 in NE 4.8 mph 17.7 mph 55 % 0.0 in
21:42 25.0 °F 15.6 °F 1019.2 in NE 11.3 mph 17.7 mph 56 % 0.0 in
21:47 24.8 °F 15.4 °F 1019.2 in NNE 8.0 mph 16.1 mph 56 % 0.0 in
21:52 24.7 °F 15.6 °F 1019.2 in NNE 6.4 mph 14.5 mph 57 % 0.0 in
21:57 24.5 °F 15.7 °F 1019.2 in NE 6.4 mph 14.5 mph 58 % 0.0 in
22:02 24.2 °F 15.7 °F 1019.2 in ENE 3.2 mph 14.5 mph 59 % 0.0 in
22:07 23.9 °F 15.7 °F 1019.2 in NNE 6.4 mph 12.9 mph 60 % 0.0 in
22:12 23.8 °F 15.6 °F 1019.2 in NE 9.7 mph 12.9 mph 60 % 0.0 in
22:17 23.7 °F 15.7 °F 1019.5 in NNE 3.2 mph 11.3 mph 61 % 0.0 in
22:22 23.4 °F 15.7 °F 1019.2 in NNE 8.0 mph 11.3 mph 62 % 0.0 in
22:27 23.2 °F 15.5 °F 1019.5 in North 9.7 mph 11.3 mph 62 % 0.0 in
22:32 23.0 °F 15.6 °F 1019.5 in NE 4.8 mph 11.3 mph 63 % 0.0 in
22:37 23.1 °F 15.7 °F 1019.2 in NNE 11.3 mph 14.5 mph 63 % 0.0 in
22:42 23.2 °F 15.8 °F 1019.5 in NE 9.7 mph 14.5 mph 63 % 0.0 in
22:47 23.1 °F 15.7 °F 1019.5 in NNE 6.4 mph 14.5 mph 63 % 0.0 in
22:52 22.8 °F 15.6 °F 1019.5 in NNE 6.4 mph 14.5 mph 64 % 0.0 in
22:57 22.7 °F 15.5 °F 1019.5 in NE 6.4 mph 12.9 mph 64 % 0.0 in
23:02 22.5 °F 15.6 °F 1019.5 in NE 11.3 mph 12.9 mph 65 % 0.0 in
23:07 22.4 °F 15.5 °F 1019.5 in NNE 6.4 mph 12.9 mph 65 % 0.0 in
23:12 22.2 °F 15.5 °F 1019.5 in NNE 9.7 mph 12.9 mph 66 % 0.0 in
23:17 22.3 °F 15.6 °F 1019.5 in NNE 8.0 mph 12.9 mph 66 % 0.0 in
23:22 22.2 °F 15.5 °F 1019.5 in NNE 4.8 mph 11.3 mph 66 % 0.0 in
23:27 22.1 °F 15.4 °F 1019.5 in NNE 6.4 mph 11.3 mph 66 % 0.0 in
23:32 21.8 °F 15.4 °F 1019.5 in NNE 4.8 mph 11.3 mph 67 % 0.0 in
23:37 21.8 °F 15.4 °F 1019.5 in NNE 6.4 mph 11.3 mph 67 % 0.0 in
23:42 22.0 °F 15.4 °F 1019.5 in NE 4.8 mph 14.5 mph 66 % 0.0 in
23:47 22.0 °F 15.4 °F 1019.5 in NE 3.2 mph 14.5 mph 66 % 0.0 in
23:52 22.0 °F 15.4 °F 1019.5 in NE 4.8 mph 14.5 mph 66 % 0.0 in
23:57 21.9 °F 15.5 °F 1019.9 in NE 6.4 mph 12.9 mph 67 % 0.0 in
Meteo18
Compliments of Weather Underground - 4 mb

Script developed by  Jim McMurry - jmcmurry@mwt.net Adapted for the template by  Wim van der Kuil - Leuven-Template.eu

You find our weather info also at:

European Weather Network

Weather Underground

Equipment we use:

Weather-station
Davis Vue

Weather-program
Meteobridge

Weather-server
Raspberry PI 2 B+

Provider
1 and 1

Davis Vue

Meteobridge

Raspberry PI 2 B+

1 and 1